Location: Shannon
(40.5500°S, 175.4167°E)
Time: 21:35:21
(UTC+00:00)

H-2A R/B - Pass Details

Date: 17 November 2025
Orbit: 484 x 560 km, 98.2° (Epoch: 14 December)

Event Time Altitude Azimuth Distance (km) Brightness Sun altitude
Rises 15:58:33 0° 182° (S) 2,614 6.3 -9.1°
Reaches altitude 10° 16:00:56 10° 196° (SSW) 1,731 5.1 -8.8°
Maximum altitude 16:03:53 23° 249° (WSW) 1,137 3.6 -8.3°
Enters shadow 16:06:50 10° 301° (WNW) 1,735 4.2 -7.8°
